Location: Drocourt
(49.0571°N, 1.7669°E)
Time: 21:20:42
(UTC+00:00)

S-56A Canister/Altair - Pass Details

Date: 16 April 2024
Orbit: 638 x 2488 km, 38.9° (Epoch: 20 May)

Event Time Altitude Azimuth Distance (km) Brightness Sun altitude
Rises 17:03:29 0° 207° (SSW) 3,353 11.2 15.9°
Reaches altitude 10° 17:06:19 10° 191° (S) 2,627 10.5 15.5°
Maximum altitude 17:10:51 21° 144° (SE) 2,299 9.7 14.7°
Drops below altitude 10° 17:16:42 10° 100° (E) 3,500 10.3 13.8°
Sets 17:21:12 0° 87° (E) 4,858 11.0 13.0°
